Location: Unspecified
(42.3650°N, 71.1030°W)
Time: 23:03:54
(UTC+00:00)

Tiros 1 despin weight - All Passes

Search period start: 15 June 2024 00:00
Search period end: 25 June 2024 00:00
Orbit: 577 x 621 km, 48.2° (Epoch: 15 June)

Date Brightness Start Highest point End Pass type
(mag) Time Alt. Az. Time Alt. Az. Time Alt. Az.
15 Jun - 00:52:26 10° WNW 00:56:57 84° NNE 01:01:24 10° ESE visible
15 Jun - 02:34:11 10° W 02:37:42 23° SW 02:41:10 10° S visible
15 Jun - 18:18:21 10° S 18:21:54 23° SE 18:25:28 10° E daylight
15 Jun - 19:58:05 10° WSW 20:02:40 87° NNW 20:07:14 10° ENE daylight
15 Jun - 21:39:50 10° WNW 21:44:10 41° N 21:48:27 10° ENE daylight
15 Jun - 23:21:32 10° WNW 23:25:55 46° NNE 23:30:15 10° E daylight
16 Jun - 01:02:46 10° WNW 01:07:14 64° SSW 01:11:36 10° SE visible
16 Jun - 02:45:36 10° WSW 02:47:41 13° SW 02:49:45 10° SSW visible
16 Jun - 18:27:46 10° SSW 18:31:59 37° SE 18:36:12 10° ENE daylight
16 Jun - 20:08:28 10° WSW 20:13:00 62° NNW 20:17:31 10° ENE daylight
16 Jun - 21:50:23 10° WNW 21:54:40 39° N 21:58:55 10° ENE daylight
16 Jun - 23:31:51 10° WNW 23:36:21 59° NNE 23:40:46 10° E daylight
17 Jun - 01:13:12 10° WNW 01:17:24 39° SW 01:21:31 10° SSE visible
17 Jun - 16:59:42 10° SSE 17:01:41 13° SE 17:03:39 10° ESE daylight
17 Jun - 18:37:38 10° SW 18:42:08 61° SSE 18:46:38 10° ENE daylight
17 Jun - 20:18:59 10° W 20:23:26 48° NNW 20:27:50 10° ENE daylight
17 Jun - 22:00:51 10° WNW 22:05:10 40° N 22:09:26 10° ENE daylight
17 Jun - 23:42:09 10° WNW 23:46:42 83° NNE 23:51:10 10° ESE daylight
18 Jun - 01:23:52 10° W 01:27:28 24° SW 01:30:59 10° S visible
18 Jun - 17:08:07 10° S 17:11:38 22° SE 17:15:09 10° E daylight
18 Jun - 18:47:47 10° WSW 18:52:22 88° NW 18:56:58 10° ENE daylight
18 Jun - 20:29:32 10° W 20:33:53 41° N 20:38:11 10° ENE daylight
18 Jun - 22:11:14 10° WNW 22:15:38 46° NNE 22:19:59 10° E daylight
18 Jun - 23:52:28 10° WNW 23:56:57 66° SSW 00:01:22 10° SE daylight
19 Jun - 01:35:12 10° WSW 01:37:25 14° SW 01:39:37 10° SSW visible
19 Jun - 17:17:29 10° SSW 17:21:40 37° SE 17:25:53 10° ENE daylight
19 Jun - 18:58:09 10° WSW 19:02:42 63° NNW 19:07:14 10° ENE daylight
19 Jun - 20:40:03 10° WNW 20:44:21 39° N 20:48:37 10° ENE daylight
19 Jun - 22:21:33 10° WNW 22:26:03 59° NNE 22:30:29 10° E daylight
20 Jun - 00:02:52 10° WNW 00:07:06 40° SW 00:11:16 10° SSE daylight
20 Jun - 15:49:31 10° SSE 15:51:22 12° SE 15:53:14 10° ESE daylight
20 Jun - 17:27:19 10° SW 17:31:48 60° SSE 17:36:19 10° ENE daylight
20 Jun - 19:08:38 10° W 19:13:05 49° NNW 19:17:31 10° ENE daylight
20 Jun - 20:50:30 10° WNW 20:54:50 40° N 20:59:07 10° ENE daylight
20 Jun - 22:31:49 10° WNW 22:36:23 82° NNE 22:40:53 10° ESE daylight
21 Jun - 00:13:31 10° W 00:17:09 24° SW 00:20:45 10° SSE daylight
21 Jun - 15:57:50 10° S 16:01:18 22° SE 16:04:47 10° E daylight
21 Jun - 17:37:26 10° WSW 17:42:01 90° NNW 17:46:37 10° ENE daylight
21 Jun - 19:19:10 10° W 19:23:31 42° N 19:27:51 10° ENE daylight
21 Jun - 21:00:52 10° WNW 21:05:17 46° NNE 21:09:39 10° E daylight
21 Jun - 22:42:06 10° WNW 22:46:37 67° SSW 22:51:03 10° SE daylight
22 Jun - 00:24:44 10° W 00:27:06 14° SW 00:29:26 10° SSW daylight
22 Jun - 16:07:09 10° SSW 16:11:18 36° SE 16:15:30 10° ENE daylight
22 Jun - 17:47:46 10° WSW 17:52:19 64° NNW 17:56:52 10° ENE daylight
22 Jun - 19:29:40 10° WNW 19:33:59 39° N 19:38:16 10° ENE daylight
22 Jun - 21:11:09 10° WNW 21:15:40 58° NNE 21:20:08 10° E daylight
22 Jun - 22:52:28 10° WNW 22:56:45 41° SW 23:00:57 10° SSE daylight
23 Jun - 14:39:17 10° SSE 14:40:59 12° SE 14:42:43 10° ESE daylight
23 Jun - 16:16:56 10° SW 16:21:25 59° SSE 16:25:54 10° ENE daylight
23 Jun - 17:58:14 10° W 18:02:41 49° NNW 18:07:08 10° ENE daylight
23 Jun - 19:40:06 10° WNW 19:44:25 40° N 19:48:44 10° ENE daylight
23 Jun - 21:21:24 10° WNW 21:25:59 81° NNE 21:30:30 10° ESE daylight
23 Jun - 23:03:04 10° W 23:06:47 25° SW 23:10:26 10° SSE daylight
24 Jun - 14:47:29 10° S 14:50:54 21° SE 14:54:19 10° E daylight
24 Jun - 16:27:02 10° WSW 16:31:35 89° S 16:36:12 10° ENE daylight
24 Jun - 18:08:44 10° W 18:13:05 42° N 18:17:26 10° ENE daylight
24 Jun - 19:50:26 10° WNW 19:54:51 46° NNE 19:59:14 10° E daylight
24 Jun - 21:31:39 10° WNW 21:36:12 69° SSW 21:40:40 10° SE daylight
24 Jun - 23:14:13 10° W 23:16:42 15° SW 23:19:09 10° SSW daylight
